DW2489 Weather Reports


Display with metric or nautical units.
time (UTC)temp
F
wind
direction
speed
MPH
gust
MPH
rain 1hr
in
rain 24hr
in
rain mn
in
humidity
%
barometer
mb
20260906230735 67 70 2.0 6.0 0.00 0.00 0.00 1016.9
20260906230234 67 43 2.0 4.0 0.00 0.00 0.00 1016.9
20260906225731 68 41 3.0 4.0 0.00 0.00 0.00 1016.9
20260906225229 68 41 2.0 6.0 0.00 0.00 0.00 1016.9
20260906224727 68 42 0.0 6.0 0.00 0.00 0.00 1016.9
20260906224226 69 12 2.0 7.0 0.00 0.00 0.00 1016.9
20260906223725 69 55 2.0 7.0 0.00 0.00 0.00 1016.9
20260906223222 69 53 4.0 9.0 0.00 0.00 0.00 1017.3
20260906222719 69 81 3.0 13.0 0.00 0.00 0.00 1016.9
20260906222217 70 94 4.0 13.0 0.00 0.00 0.00 1017.3
20260906221714 70 31 3.0 9.0 0.00 0.00 0.00 1016.9
20260906221212 70 16 3.0 10.0 0.00 0.00 0.00 1016.9
20260906220639 70 24 2.0 10.0 0.00 0.00 0.00 1016.9
20260906220138 70 101 5.0 10.0 0.00 0.00 0.00 1016.9
20260906215634 70 91 2.0 9.0 0.00 0.00 0.00 1016.9
20260906215132 70 92 3.0 15.0 0.00 0.00 0.00 1016.9
20260906214630 70 78 4.0 15.0 0.00 0.00 0.00 1016.9
20260906214129 70 69 5.0 15.0 0.00 0.00 0.00 1016.9
20260906213628 70 29 3.0 6.0 0.00 0.00 0.00 1016.6
20260906213125 70 53 3.0 7.0 0.00 0.00 0.00 1016.6
20260906212624 70 115 2.0 10.0 0.00 0.00 0.00 1016.6
20260906212123 71 119 5.0 13.0 0.00 0.00 0.00 1016.6
20260906211622 71 136 5.0 13.0 0.00 0.00 0.00 1016.6
20260906211121 71 87 4.0 12.0 0.00 0.00 0.00 1016.6
20260906210549 72 89 5.0 12.0 0.00 0.00 0.00 1016.6
20260906210048 71 94 5.0 12.0 0.00 0.00 0.00 1016.6
20260906205545 72 36 4.0 7.0 0.00 0.00 0.00 1016.6
20260906205045 71 2 4.0 7.0 0.00 0.00 0.00 1016.3
20260906204544 71 72 4.0 10.0 0.00 0.00 0.00 1016.3
20260906204011 71 92 5.0 10.0 0.00 0.00 0.00 1016.3
20260906203510 71 5 3.0 10.0 0.00 0.00 0.00 1016.3
20260906203009 72 74 7.0 12.0 0.00 0.00 0.00 1016.6
20260906202437 72 87 5.0 13.0 0.00 0.00 0.00 1016.3
20260906201934 73 82 5.0 13.0 0.00 0.00 0.00 1016.3
20260906201402 73 71 4.0 13.0 0.00 0.00 0.00 1016.6
20260906200901 73 16 3.0 9.0 0.00 0.00 0.00 1016.3
20260906200359 73 70 4.0 10.0 0.00 0.00 0.00 1016.3
20260906195857 73 95 3.0 10.0 0.00 0.00 0.00 1016.3
20260906195356 72 28 5.0 10.0 0.00 0.00 0.00 1016.3
20260906194854 72 48 5.0 13.0 0.00 0.00 0.00 1016.3
20260906194353 72 22 4.0 13.0 0.00 0.00 0.00 1016.3
20260906193851 72 75 6.0 16.0 0.00 0.00 0.00 1016.3
20260906193350 72 52 4.0 16.0 0.00 0.00 0.00 1016.3
20260906192849 72 58 5.0 16.0 0.00 0.00 0.00 1016.3
20260906192246 72 47 5.0 15.0 0.00 0.00 0.00 1016.6
20260906191745 71 33 3.0 15.0 0.00 0.00 0.00 1016.6
20260906191244 71 91 8.0 15.0 0.00 0.00 0.00 1016.6
20260906190742 71 105 6.0 12.0 0.00 0.00 0.00 1016.6
20260906190137 71 9 4.0 12.0 0.00 0.00 0.00 1016.6
20260906185636 71 50 5.0 12.0 0.00 0.00 0.00 1016.6
20260906185132 71 4 4.0 10.0 0.00 0.00 0.00 1016.6
20260906184629 71 79 4.0 12.0 0.00 0.00 0.00 1016.6
20260906184124 71 7 6.0 15.0 0.00 0.00 0.00 1016.6
20260906183623 71 28 4.0 15.0 0.00 0.00 0.00 1016.6
20260906183051 71 85 6.0 13.0 0.00 0.00 0.00 1016.6
20260906182549 70 99 3.0 10.0 0.00 0.00 0.00 1016.6
20260906182048 70 12 5.0 15.0 0.00 0.00 0.00 1016.9
20260906181545 70 55 6.0 15.0 0.00 0.00 0.00 1016.9
20260906181043 70 63 5.0 12.0 0.00 0.00 0.00 1016.9
20260906180542 70 7 5.0 13.0 0.00 0.00 0.00 1016.9
20260906180010 70 53 4.0 13.0 0.00 0.00 0.00 1016.9
20260906175509 70 9 6.0 12.0 0.00 0.00 0.00 1016.9
20260906175008 70 24 3.0 10.0 0.00 0.00 0.00 1016.9
20260906174507 70 13 2.0 15.0 0.00 0.00 0.00 1016.9
20260906174005 70 159 4.0 15.0 0.00 0.00 0.00 1016.9
20260906173503 70 81 7.0 15.0 0.00 0.00 0.00 1017.3
20260906173002 70 117 8.0 12.0 0.00 0.00 0.00 1017.3
20260906172500 70 83 4.0 13.0 0.00 0.00 0.00 1017.3
20260906171928 70 94 5.0 13.0 0.00 0.00 0.00 1017.3
20260906171356 70 52 5.0 13.0 0.00 0.00 0.00 1017.3
20260906170855 69 81 6.0 15.0 0.00 0.00 0.00 1017.3
20260906170354 69 55 5.0 15.0 0.00 0.00 0.00 1017.3
20260906165852 69 72 6.0 15.0 0.00 0.00 0.00 1017.3
20260906165349 69 77 6.0 13.0 0.00 0.00 0.00 1017.3
20260906164744 69 20 5.0 13.0 0.00 0.00 0.00 1017.6
20260906164242 69 61 4.0 13.0 0.00 0.00 0.00 1017.6
20260906163740 69 80 6.0 19.0 0.00 0.00 0.00 1017.6
20260906163237 69 98 4.0 19.0 0.00 0.00 0.00 1017.6
20260906162735 69 100 10.0 19.0 0.00 0.00 0.00 1017.6
20260906162234 69 107 6.0 12.0 0.00 0.00 0.00 1017.6
20260906161629 69 79 6.0 13.0 0.00 0.00 0.00 1017.6
20260906161128 69 58 4.0 13.0 0.00 0.00 0.00 1017.6
20260906160626 68 97 4.0 9.0 0.00 0.00 0.00 1017.6
20260906160054 69 1 7.0 9.0 0.00 0.00 0.00 1017.6
20260906155538 68 60 7.0 12.0 0.00 0.00 0.00 1017.5
20260906155008 68 71 5.0 16.0 0.00 0.00 0.00 1017.6
20260906154508 68 1 6.0 16.0 0.00 0.00 0.00 1017.6
20260906154007 68 114 7.0 16.0 0.00 0.00 0.00 1017.5
20260906153508 68 12 2.0 16.0 0.00 0.00 0.00 1017.5
20260906153008 68 44 5.0 15.0 0.00 0.00 0.00 1017.5
20260906152522 68 14 5.0 15.0 0.00 0.00 0.00 1017.6
20260906152023 67 71 5.0 13.0 0.00 0.00 0.00 1017.6
20260906151508 67 18 4.0 12.0 0.00 0.00 0.00 1017.6
20260906151007 66 85 4.0 12.0 0.00 0.00 0.00 1017.5
20260906150523 66 28 6.0 13.0 0.00 0.00 0.00 1017.4
20260906150007 66 29 2.0 13.0 0.00 0.00 0.00 1017.5
20260906145510 66 0 3.0 11.0 0.00 0.00 0.00 1017.5
20260906145007 66 122 5.0 14.0 0.00 0.00 0.00 1017.5
20260906144508 66 84 3.0 14.0 0.00 0.00 0.00 1017.5
20260906144008 65 108 10.0 14.0 0.00 0.00 0.00 1017.5
20260906143508 65 81 0.0 14.0 0.00 0.00 0.00 1017.4
20260906143007 65 324 2.0 11.0 0.00 0.00 0.00 1017.4
20260906142508 66 101 0.0 13.0 0.00 0.00 0.00 1017.4
20260906142022 65 67 1.0 13.0 0.00 0.00 0.00 1017.3
20260906141507 65 32 5.0 9.0 0.00 0.00 0.00 1017.2
20260906141007 65 7 2.0 8.0 0.00 0.00 0.00 1017.2
20260906140508 65 0 2.0 9.0 0.00 0.00 0.00 1017.2
20260906140108 65 19 1.0 9.0 0.00 0.00 0.00 1017.3
20260906135507 64 16 5.0 11.0 0.00 0.00 0.00 1017.2
20260906135008 64 0 2.0 13.0 0.00 0.00 0.00 1017.2
20260906134552 65 18 5.0 13.0 0.00 0.00 0.00 1017.1
20260906134007 65 80 6.0 13.0 0.00 0.00 0.00 1017.0
20260906133507 64 97 6.0 16.0 0.00 0.00 0.00 1016.9
20260906133007 64 98 3.0 16.0 0.00 0.00 0.00 1016.8
20260906132507 63 55 0.0 14.0 0.00 0.00 0.00 1016.9
20260906132007 63 5 0.0 13.0 0.00 0.00 0.00 1016.9
20260906131508 63 93 1.0 13.0 0.00 0.00 0.00 1016.8
20260906131007 63 91 2.0 13.0 0.00 0.00 0.00 1016.8
20260906130007 63 86 3.0 11.0 0.00 0.00 0.00 1016.8
20260906125507 62 103 3.0 11.0 0.00 0.00 0.00 1016.9
20260906125007 62 64 1.0 11.0 0.00 0.00 0.00 1016.8
20260906124508 62 75 5.0 13.0 0.00 0.00 0.00 1016.8
20260906124007 61 346 3.0 13.0 0.00 0.00 0.00 1016.7
20260906123607 61 46 1.0 13.0 0.00 0.00 0.00 1016.7
20260906123007 61 120 2.0 9.0 0.00 0.00 0.00 1016.8
20260906122507 61 60 1.0 9.0 0.00 0.00 0.00 1016.6
20260906122007 61 87 0.0 9.0 0.00 0.00 0.00 1016.6
20260906121507 61 86 0.0 13.0 0.00 0.00 0.00 1016.6
20260906121007 61 86 0.0 13.0 0.00 0.00 0.00 1016.6
20260906120507 61 80 2.0 8.0 0.00 0.00 0.00 1016.5
20260906120006 61 98 2.0 6.0 0.00 0.00 0.00 1016.3
20260906115507 61 74 0.0 8.0 0.00 0.00 0.00 1016.2
20260906115007 61 48 3.0 8.0 0.00 0.00 0.00 1016.1
20260906114506 60 69 0.0 6.0 0.00 0.00 0.00 1016.1
20260906114007 60 69 0.0 9.0 0.00 0.00 0.00 1016.1
20260906113506 60 45 2.0 9.0 0.00 0.00 0.00 1016.1
20260906113006 60 86 2.0 9.0 0.00 0.00 0.00 1015.9
20260906112507 60 60 0.0 11.0 0.00 0.00 0.00 1015.9
20260906112008 60 55 1.0 11.0 0.00 0.00 0.00 1015.8
20260906111522 60 63 2.0 6.0 0.00 0.00 0.00 1015.7
20260906111007 60 40 0.0 6.0 0.00 0.00 0.00 1015.6
20260906110537 60 21 0.0 5.0 0.00 0.00 0.00 1015.5
20260906110007 60 21 0.0 5.0 0.00 0.00 0.00 1015.4
20260906105537 61 327 1.0 8.0 0.00 0.00 0.00 1015.5
20260906105007 61 54 1.0 8.0 0.00 0.00 0.00 1015.4
20260906104507 61 69 0.0 9.0 0.00 0.00 0.00 1015.4
20260906104037 61 92 0.0 9.0 0.00 0.00 0.00 1015.4
20260906103507 61 49 0.0 6.0 0.00 0.00 0.00 1015.2
20260906103007 61 3 2.0 6.0 0.00 0.00 0.00 1015.2
20260906102508 61 46 2.0 8.0 0.00 0.00 0.00 1015.1
20260906102007 61 41 2.0 8.0 0.00 0.00 0.00 1015.1
20260906101522 61 80 0.0 6.0 0.00 0.00 0.00 1015.1
20260906101022 62 12 1.0 5.0 0.00 0.00 0.00 1014.9
20260906100507 62 98 0.0 6.0 0.00 0.00 0.00 1014.8
20260906100007 62 59 0.0 8.0 0.00 0.00 0.00 1014.9
20260906095507 62 48 1.0 8.0 0.00 0.00 0.00 1015.0
20260906095037 62 71 3.0 8.0 0.00 0.00 0.00 1014.9
20260906094506 62 1 1.0 9.0 0.00 0.00 0.00 1014.9
20260906094037 62 2 1.0 9.0 0.00 0.00 0.00 1014.9
20260906093521 62 6 2.0 11.0 0.00 0.00 0.00 1014.7
20260906093007 62 15 5.0 13.0 0.00 0.00 0.00 1014.7
20260906092522 62 2 1.0 13.0 0.00 0.00 0.00 1014.7
20260906092008 62 26 5.0 11.0 0.00 0.00 0.00 1014.7
20260906091507 63 6 0.0 8.0 0.00 0.00 0.00 1014.5
20260906091007 63 24 0.0 11.0 0.00 0.00 0.00 1014.4
20260906090507 62 88 3.0 11.0 0.00 0.00 0.00 1014.4
20260906090007 62 57 3.0 11.0 0.00 0.00 0.00 1014.4
20260906085507 63 20 0.0 5.0 0.00 0.00 0.00 1014.3
20260906085021 63 20 0.0 5.0 0.00 0.00 0.00 1014.4
20260906084506 63 20 0.0 3.0 0.00 0.00 0.00 1014.3
20260906084038 63 20 1.0 3.0 0.00 0.00 0.00 1014.2
20260906083507 63 20 0.0 0.0 0.00 0.00 0.00 1014.1
20260906083022 63 20 0.0 0.0 0.00 0.00 0.00 1014.1
20260906082508 63 20 0.0 0.0 0.00 0.00 0.00 1014.0
20260906082007 63 20 0.0 0.0 0.00 0.00 0.00 1013.9
20260906081538 63 20 0.0 0.0 0.00 0.00 0.00 1014.0
20260906081007 63 20 0.0 0.0 0.00 0.00 0.00 1014.0
20260906080506 63 20 0.0 3.0 0.00 0.00 0.00 1014.1
20260906080007 63 20 0.0 5.0 0.00 0.00 0.00 1014.0
20260906075507 63 20 0.0 5.0 0.00 0.00 0.00 1014.0
20260906075006 63 20 0.0 5.0 0.00 0.00 0.00 1014.0
20260906074506 63 20 2.0 5.0 0.00 0.00 0.00 1014.0
20260906074007 63 20 0.0 3.0 0.00 0.00 0.00 1013.9
20260906073506 63 20 0.0 6.0 0.00 0.00 0.00 1014.0
20260906073006 63 20 1.0 6.0 0.00 0.00 0.00 1014.0
20260906072506 63 20 2.0 5.0 0.00 0.00 0.00 1013.9
20260906072007 63 20 0.0 3.0 0.00 0.00 0.00 1013.9
20260906071507 63 20 1.0 3.0 0.00 0.00 0.00 1013.7
20260906071006 63 20 0.0 2.0 0.00 0.00 0.00 1013.8
20260906070521 63 20 0.0 5.0 0.00 0.00 0.00 1013.8
20260906070022 63 20 1.0 5.0 0.00 0.00 0.00 1013.6
20260906065506 63 20 0.0 0.0 0.00 0.00 0.00 1013.7
20260906065021 63 20 0.0 3.0 0.00 0.00 0.00 1013.7
20260906064506 63 20 0.0 3.0 0.00 0.00 0.00 1013.8
20260906064006 63 20 0.0 2.0 0.00 0.00 0.00 1013.7
20260906063506 63 20 0.0 2.0 0.00 0.00 0.00 1013.7
20260906063006 63 20 0.0 0.0 0.00 0.00 0.00 1013.8
20260906062507 63 20 0.0 0.0 0.00 0.00 0.00 1013.7
20260906062008 63 20 0.0 3.0 0.00 0.00 0.00 1013.9
20260906061507 63 20 0.0 5.0 0.00 0.00 0.00 1013.7
20260906061006 63 20 2.0 6.0 0.00 0.00 0.00 1013.7
20260906060506 63 20 1.0 6.0 0.00 0.00 0.00 1013.7
20260906060006 63 20 2.0 3.0 0.00 0.00 0.00 1013.8
20260906055508 63 20 0.0 5.0 0.00 0.00 0.00 1013.9
20260906055037 63 20 0.0 5.0 0.00 0.00 0.00 1013.8
20260906054536 63 20 0.0 5.0 0.00 0.00 0.00 1013.9
20260906054007 62 20 2.0 3.0 0.00 0.00 0.00 1013.8
20260906053506 62 20 1.0 2.0 0.00 0.00 0.00 1013.8
20260906053007 62 20 0.0 0.0 0.00 0.00 0.00 1013.9
20260906052506 63 20 0.0 0.0 0.00 0.00 0.00 1013.9
20260906052007 63 20 0.0 0.0 0.00 0.00 0.00 1013.9
20260906051506 63 20 0.0 0.0 0.00 0.00 0.00 1013.7
20260906051007 63 20 0.0 0.0 0.00 0.00 0.00 1013.8
20260906050506 63 20 0.0 3.0 0.00 0.00 0.00 1013.8
20260906050006 63 20 0.0 3.0 0.00 0.00 0.00 1013.8
20260906045506 63 20 0.0 5.0 0.00 0.00 0.00 1013.8
20260906045006 63 20 0.0 5.0 0.00 0.00 0.00 1014.0
20260906044506 63 17 1.0 5.0 0.00 0.00 0.00 1013.9
20260906044006 63 20 0.0 2.0 0.00 0.00 0.00 1014.0
20260906043507 63 20 0.0 0.0 0.00 0.00 0.00 1014.1
20260906043007 63 20 0.0 2.0 0.00 0.00 0.00 1014.0
20260906042606 63 20 0.0 5.0 0.00 0.00 0.00 1014.0
20260906042006 63 18 1.0 5.0 0.00 0.00 0.00 1014.1
20260906041506 63 18 0.0 0.0 0.00 0.00 0.00 1014.1
20260906041006 63 18 0.0 0.0 0.00 0.00 0.00 1014.0
20260906040506 64 19 0.0 3.0 0.00 0.00 0.00 1013.9
20260906040006 64 18 0.0 5.0 0.00 0.00 0.00 1014.0
20260906035506 63 18 1.0 5.0 0.00 0.00 0.00 1013.9
20260906035006 63 18 1.0 3.0 0.00 0.00 0.00 1013.8
20260906034506 63 18 0.0 5.0 0.00 0.00 0.00 1013.9
20260906034006 63 19 2.0 5.0 0.00 0.00 0.00 1013.9
20260906033507 63 18 0.0 3.0 0.00 0.00 0.00 1013.9
20260906033051 63 17 1.0 3.0 0.00 0.00 0.00 1013.8
20260906032506 63 17 0.0 0.0 0.00 0.00 0.00 1013.9
20260906032008 63 17 0.0 0.0 0.00 0.00 0.00 1014.1
20260906031521 63 17 0.0 0.0 0.00 0.00 0.00 1014.2
20260906031006 63 18 0.0 0.0 0.00 0.00 0.00 1014.1
20260906030506 63 37 0.0 0.0 0.00 0.00 0.00 1013.9
20260906030006 63 41 0.0 0.0 0.00 0.00 0.00 1014.1
20260906025507 63 39 0.0 0.0 0.00 0.00 0.00 1014.0
20260906025006 63 39 0.0 0.0 0.00 0.00 0.00 1014.0
20260906024507 64 39 0.0 0.0 0.00 0.00 0.00 1013.9
20260906024006 64 39 0.0 0.0 0.00 0.00 0.00 1013.8
20260906023506 64 39 0.0 3.0 0.00 0.00 0.00 1013.8
20260906023006 64 39 0.0 3.0 0.00 0.00 0.00 1013.9
20260906022506 64 39 0.0 0.0 0.00 0.00 0.00 1013.9
20260906022006 65 39 0.0 0.0 0.00 0.00 0.00 1013.9
20260906021507 65 39 0.0 0.0 0.00 0.00 0.00 1013.9
20260906021006 65 39 0.0 0.0 0.00 0.00 0.00 1013.9
20260906020506 65 39 0.0 0.0 0.00 0.00 0.00 1013.8
20260906020006 66 39 0.0 3.0 0.00 0.00 0.00 1013.8
20260906015521 66 39 0.0 5.0 0.00 0.00 0.00 1013.8
20260906015006 66 39 1.0 5.0 0.00 0.00 0.00 1013.8
20260906014506 66 42 0.0 5.0 0.00 0.00 0.00 1013.7
20260906014006 66 42 0.0 3.0 0.00 0.00 0.00 1013.7
20260906013506 66 42 0.0 3.0 0.00 0.00 0.00 1013.8
20260906013007 66 42 0.0 5.0 0.00 0.00 0.00 1013.7
20260906012506 66 42 2.0 5.0 0.00 0.00 0.00 1013.7
20260906012006 66 42 0.0 3.0 0.00 0.00 0.00 1013.7
20260906011507 66 42 0.0 8.0 0.00 0.00 0.00 1013.7
20260906011007 66 42 0.0 8.0 0.00 0.00 0.00 1013.6
20260906010507 66 52 0.0 3.0 0.00 0.00 0.00 1013.6
20260906010008 66 52 0.0 5.0 0.00 0.00 0.00 1013.6
20260906005506 67 52 2.0 5.0 0.00 0.00 0.00 1013.6
20260906005007 67 52 0.0 6.0 0.00 0.00 0.00 1013.5
20260906004506 67 52 0.0 6.0 0.00 0.00 0.00 1013.5
20260906004006 67 20 3.0 6.0 0.00 0.00 0.00 1013.6
20260906003506 67 44 1.0 6.0 0.00 0.00 0.00 1013.5
20260906003006 67 63 0.0 6.0 0.00 0.00 0.00 1013.5
20260906002506 67 52 0.0 3.0 0.00 0.00 0.00 1013.5
20260906002006 68 69 0.0 8.0 0.00 0.00 0.00 1013.4
20260906001509 68 69 0.0 8.0 0.00 0.00 0.00 1013.4
20260906001006 68 45 0.0 6.0 0.00 0.00 0.00 1013.3
20260906000506 68 45 1.0 6.0 0.00 0.00 0.00 1013.2
20260906000006 68 35 1.0 5.0 0.00 0.00 0.00 1013.3
20260905235506 68 26 0.0 5.0 0.00 0.00 0.00 1013.1
20260905235036 69 26 0.0 5.0 0.00 0.00 0.00 1013.2
20260905234506 69 26 0.0 3.0 0.00 0.00 0.00 1013.1
20260905234022 69 26 0.0 3.0 0.00 0.00 0.00 1013.0
20260905233506 69 26 0.0 6.0 0.00 0.00 0.00 1013.0
20260905233008 70 26 0.0 6.0 0.00 0.00 0.00 1013.0
20260905232536 70 356 2.0 6.0 0.00 0.00 0.00 1013.1
20260905232006 70 28 2.0 6.0 0.00 0.00 0.00 1013.1
20260905231506 70 28 1.0 6.0 0.00 0.00 0.00 1013.0